Wind_Speed
12 11 10 11 11 10 9 8 7 6 5 5 5 4 3 3 2 2 3 4 5 6 6 6 5 5 5 5 6 6 7 7 7 7 7 6 6 6 7 7 9 7 7 7
14 13 12 12 12 11 9 9 9 9 8 6 6 5 5 4 4 4 3 4 5 6 7 6 6 6 6 6 7 7 7 8 8 8 8 7 7 7 7 7 8 7 7 7
15 14 14 14 13 12 11 10 10 10 9 8 7 6 6 6 6 6 5 5 5 6 7 7 7 7 7 7 7 8 9 9 9 9 9 9 8 8 8 8 8 8 8 9
18 17 15 14 14 13 12 12 12 11 10 9 9 7 8 8 7 7 7 7 7 7 7 8 8 8 8 8 8 8 8 9 9 10 11 11 10 10 9 9 10 9 9 10
19 19 17 16 15 14 14 13 13 13 12 11 10 8 8 9 9 8 8 9 9 9 9 10 9 9 9 10 10 10 10 10 10 11 11 11 11 11 11 11 11 11 10 11
20 21 20 19 18 17 16 15 14 14 13 14 13 11 11 11 10 10 10 10 10 10 11 11 11 10 10 10 11 11 11 11 11 11 11 12 12 12 12 13 13 12 12 12
21 22 21 20 20 19 18 16 15 15 15 16 15 14 13 12 12 12 11 11 11 11 12 12 12 11 11 11 12 13 13 14 13 13 13 14 14 13 13 14 15 14 14 14
21 21 22 21 20 20 18 17 17 16 16 17 17 16 15 14 13 13 13 12 12 12 12 12 13 13 13 14 14 14 14 14 15 15 15 15 16 16 16 16 16 16 15 15
21 22 22 21 20 20 20 19 18 17 17 17 17 17 16 15 14 14 13 14 14 14 14 14 14 15 15 15 15 16 15 16 16 16 16 16 17 18 19 18 18 18 18 17
22 22 22 21 21 21 20 19 18 18 18 17 18 17 17 15 14 14 14 15 15 15 16 16 16 15 16 16 16 17 17 17 17 18 18 18 19 20 20 18 18 19 18 18
22 22 22 22 22 22 22 21 21 20 20 18 17 18 17 16 16 15 15 15 15 16 17 17 17 17 17 18 18 19 19 19 18 19 19 20 20 21 20 19 19 20 20 20
22 22 22 23 22 22 22 22 21 21 21 20 19 20 18 17 16 16 16 17 17 17 18 18 18 18 18 19 20 21 21 20 20 20 20 21 22 22 22 21 21 22 22 22
22 22 21 21 22 22 22 22 22 22 22 21 20 20 20 19 18 18 18 18 19 19 20 20 20 20 20 21 22 23 22 22 22 22 22 23 23 23 23 23 24 24 25 25
22 23 22 21 21 21 22 22 22 22 21 22 22 22 22 21 20 20 21 20 20 21 21 21 22 23 23 23 24 24 24 24 24 24 24 24 24 24 24 24 25 26 27 26
23 23 23 23 23 23 22 22 22 22 23 23 23 23 23 23 22 23 23 23 23 23 24 24 24 25 26 26 26 27 27 26 26 26 26 26 26 25 26 26 27 27 27 27
25 25 24 24 24 24 24 23 23 23 23 24 24 24 24 24 24 24 25 25 25 25 25 25 26 26 27 27 28 28 28 28 28 28 28 28 28 28 28 28 28 28 27 27
27 26 26 24 24 25 26 25 25 24 24 23 24 24 25 25 25 26 26 26 26 26 26 26 26 27 27 28 28 29 29 29 29 29 30 30 30 30 30 29 29 28 28 28
27 27 27 26 25 26 26 25 25 25 25 25 25 25 25 24 25 25 26 27 27 28 28 27 27 27 28 28 28 29 29 29 29 29 30 30 31 30 29 29 29 29 29 29
27 28 28 28 27 27 27 26 26 26 26 26 26 25 24 25 25 26 26 27 27 28 27 28 28 27 28 28 28 28 28 29 29 30 31 31 31 30 30 30 30 31 31 31
28 28 29 29 29 28 27 25 25 26 28 26 26 26 26 26 26 27 27 26 27 27 27 27 28 28 28 28 28 29 29 29 29 29 30 31 31 31 32 31 31 32 33 33
28 29 29 30 30 30 29 28 25 26 27 26 26 27 27 27 26 26 26 26 26 27 27 27 28 28 28 29 29 29 29 29 29 30 30 31 32 32 32 32 32 33 34 35
28 28 29 29 30 31 29 29 28 27 26 26 27 27 28 27 28 28 27 28 28 28 28 27 28 28 28 28 29 29 29 29 30 30 31 31 33 33 33 33 34 34 35 35
29 29 30 30 31 31 31 30 30 29 28 28 27 27 27 27 28 28 29 29 29 29 28 27 28 28 28 28 28 29 30 30 30 31 32 33 33 34 34 34 35 34 34 33
30 30 30 31 31 31 31 31 31 31 31 30 29 28 28 28 28 29 29 29 28 28 28 27 28 28 28 29 29 30 30 31 32 32 33 34 34 34 34 34 34 33 33 33
31 31 31 31 31 31 32 32 32 32 32 32 31 31 30 30 30 30 29 29 28 29 30 29 29 29 29 30 30 30 31 32 32 33 34 34 34 34 34 33 33 33 33 34
31 31 32 31 31 31 32 32 32 32 32 31 31 31 30 29 29 29 29 29 29 29 30 30 30 31 30 30 30 30 31 32 33 34 34 34 34 34 34 34 34 34 35 34
Wind_Direction
216 220 222 226 228 229 232 235 244 250 256 270 275 267 269 267 277 312 332 339 345 349 350 344 337 343 354 356 349 342 339 338 337 337 333 332 336 339 342 340 342 338 339 331
223 226 228 231 232 235 238 240 248 255 261 265 273 263 264 277 285 297 305 313 322 332 340 338 329 336 335 336 335 331 325 323 323 325 323 319 323 329 334 336 338 339 332 328
224 228 230 231 232 235 239 242 247 257 262 265 273 270 269 275 281 283 289 290 302 314 321 321 319 321 326 325 323 323 318 315 316 316 315 311 315 318 317 318 321 324 317 315
227 230 233 235 235 238 241 242 247 257 263 266 264 260 266 271 278 281 283 287 290 299 306 310 310 311 316 317 320 324 322 316 311 310 310 307 307 312 311 311 311 312 310 308
231 231 233 236 238 242 242 244 247 256 260 263 265 262 263 272 279 282 285 288 288 293 295 299 302 300 303 308 311 315 320 320 313 309 310 309 304 304 306 306 305 305 302 303
231 231 233 236 237 242 245 247 254 259 259 262 265 267 266 273 276 278 281 279 282 287 292 294 296 297 296 300 305 308 312 314 313 312 311 310 306 300 299 298 299 300 297 296
233 234 235 238 239 242 245 247 252 259 259 261 266 268 265 271 273 276 278 279 279 285 291 295 294 295 294 293 299 303 308 308 307 305 306 306 306 302 296 296 297 296 293 293
235 237 238 240 241 243 246 245 246 251 257 264 267 268 270 273 276 277 278 279 279 281 286 291 291 293 294 290 293 299 303 303 302 300 302 301 302 302 299 297 296 293 291 291
233 238 241 242 243 243 245 245 247 253 257 260 264 268 269 271 276 277 275 278 277 277 281 287 289 290 292 291 291 293 294 297 298 299 299 299 297 298 297 297 297 296 291 289
232 237 241 243 245 245 244 247 249 250 253 257 263 268 270 272 271 273 274 275 274 274 279 284 288 290 291 290 289 291 296 299 297 298 298 297 295 294 295 297 297 297 293 291
233 237 241 244 244 247 246 247 248 250 250 253 260 264 268 270 270 270 270 269 270 272 276 278 282 285 287 286 286 290 294 295 296 297 297 297 297 295 293 293 292 292 292 292
233 235 239 245 247 247 246 247 249 250 254 255 257 263 267 268 267 268 268 268 269 270 274 275 276 281 283 284 285 288 292 292 292 293 294 296 297 294 291 293 290 291 292 291
233 234 238 246 250 248 247 247 249 249 252 256 257 262 263 264 264 266 268 270 271 271 273 274 275 278 280 283 285 287 290 291 291 292 294 296 296 294 292 293 290 291 291 288
236 235 235 238 245 250 251 251 251 249 250 255 256 257 260 263 266 267 268 269 271 274 273 272 273 275 277 281 284 286 287 288 289 291 293 294 295 294 294 293 291 291 291 288
238 240 241 241 243 247 251 251 251 251 251 254 258 260 261 263 266 266 268 270 272 273 274 274 275 276 277 280 283 285 285 286 288 289 290 291 292 293 294 293 293 292 291 291
240 242 244 246 246 248 249 249 251 254 256 259 260 262 264 265 266 266 268 270 271 273 274 276 277 278 278 279 282 284 285 286 286 286 287 288 289 291 292 292 291 292 290 290
243 244 245 247 247 248 249 249 252 255 258 261 263 266 269 268 268 269 270 270 272 274 275 276 278 279 279 279 282 283 283 284 286 286 284 286 289 291 292 290 290 290 290 289
244 245 245 246 247 247 249 250 252 256 258 262 265 268 269 270 270 271 272 273 274 275 276 276 277 279 279 279 280 282 282 283 285 287 286 287 288 289 290 290 289 290 290 290
242 244 245 246 249 252 252 253 254 256 259 262 267 269 271 273 272 273 275 275 275 276 275 276 277 278 280 280 280 280 281 283 285 285 284 285 286 287 288 290 290 290 290 289
242 244 246 247 248 251 256 257 257 259 261 263 267 270 271 273 275 275 275 277 275 276 276 277 278 279 279 280 281 281 282 284 284 284 285 285 286 286 286 288 289 289 290 289
243 245 246 249 251 254 256 257 257 258 262 265 267 269 270 272 275 275 275 277 277 278 277 278 280 280 280 279 280 280 282 283 284 285 285 286 286 288 288 289 291 290 289 288
245 246 247 249 251 254 258 260 259 261 263 265 268 270 271 271 273 275 275 276 278 279 280 280 280 280 279 280 281 282 283 284 285 286 286 287 288 288 288 289 289 290 290 288
245 246 248 249 252 255 257 260 262 263 264 266 268 270 271 272 274 276 276 276 277 279 279 278 277 278 279 281 282 283 285 284 285 287 287 288 289 288 288 290 290 290 290 289
248 249 250 251 253 255 256 258 260 262 264 267 269 271 272 272 274 275 277 277 277 277 276 275 275 277 279 281 281 282 284 285 286 286 287 287 288 288 288 289 289 289 290 288
250 251 252 253 254 255 256 258 260 262 264 267 270 271 273 275 274 274 274 274 274 275 274 274 275 278 280 281 281 281 283 285 286 287 288 288 287 288 288 288 289 289 290 290
252 254 255 255 255 256 258 259 260 262 264 267 269 271 272 273 273 272 272 273 274 275 276 275 277 279 280 280 280 281 282 284 286 287 288 288 288 287 286 288 289 289 289 290
Height
5918 5921 5922 5924 5925 5926 5927 5928 5928 5928 5928 5928 5927 5927 5926 5926 5925 5924 5923 5922 5921 5920 5919 5917 5916 5915 5914 5913 5912 5910 5909 5907 5906 5904 5903 5902 5900 5899 5897 5895 5893 5891 5891 5890
5917 5919 5920 5921 5922 5923 5924 5926 5927 5927 5926 5927 5926 5926 5925 5925 5924 5924 5923 5921 5920 5919 5918 5917 5916 5915 5914 5912 5911 5909 5908 5906 5905 5904 5902 5901 5899 5898 5896 5895 5893 5892 5891 5889
5914 5917 5917 5918 5919 5921 5922 5924 5924 5924 5925 5925 5926 5925 5925 5924 5923 5923 5922 5921 5920 5919 5917 5916 5915 5914 5913 5912 5910 5908 5907 5905 5904 5902 5901 5899 5898 5896 5895 5894 5892 5891 5890 5888
5910 5912 5913 5915 5917 5918 5920 5921 5921 5922 5923 5924 5924 5925 5924 5922 5922 5921 5920 5919 5918 5917 5917 5915 5914 5913 5912 5910 5909 5907 5905 5904 5902 5901 5899 5897 5896 5895 5893 5892 5890 5889 5888 5886
5907 5908 5910 5912 5914 5915 5917 5917 5918 5919 5920 5921 5921 5922 5923 5921 5920 5920 5919 5918 5917 5916 5915 5914 5913 5912 5910 5909 5907 5906 5904 5902 5901 5899 5897 5896 5894 5893 5891 5890 5888 5887 5885 5884
5903 5904 5906 5909 5910 5911 5913 5914 5915 5916 5918 5919 5919 5920 5920 5919 5918 5917 5916 5916 5915 5914 5913 5912 5911 5910 5908 5907 5906 5904 5902 5901 5899 5897 5895 5894 5892 5890 5889 5888 5886 5885 5883 5882
5898 5900 5902 5904 5906 5908 5909 5912 5914 5915 5916 5916 5916 5916 5917 5916 5915 5914 5914 5913 5912 5912 5911 5910 5908 5907 5906 5905 5903 5902 5900 5899 5897 5895 5893 5891 5890 5887 5886 5885 5883 5882 5880 5879
5895 5897 5898 5900 5902 5904 5906 5908 5911 5913 5914 5913 5912 5912 5913 5912 5911 5910 5910 5910 5909 5909 5908 5907 5905 5904 5903 5902 5901 5899 5897 5896 5894 5892 5890 5888 5887 5885 5883 5881 5880 5878 5877 5875
5892 5893 5894 5896 5898 5900 5901 5903 5905 5907 5907 5909 5909 5908 5908 5907 5907 5907 5906 5906 5906 5905 5904 5904 5902 5901 5900 5898 5897 5896 5894 5892 5891 5889 5887 5885 5883 5881 5879 5877 5876 5874 5873 5871
5886 5888 5890 5891 5893 5894 5896 5898 5900 5902 5903 5904 5905 5904 5904 5903 5903 5903 5903 5902 5902 5901 5901 5900 5898 5897 5896 5894 5893 5892 5890 5889 5887 5885 5883 5881 5879 5877 5875 5873 5871 5870 5868 5867
5881 5884 5886 5887 5888 5890 5892 5894 5895 5897 5898 5900 5901 5903 5900 5899 5899 5899 5898 5898 5898 5897 5897 5896 5894 5893 5892 5891 5889 5888 5886 5884 5883 5881 5879 5877 5875 5873 5871 5869 5867 5865 5863 5862
5876 5879 5881 5882 5883 5885 5887 5888 5890 5892 5892 5893 5895 5898 5894 5894 5894 5894 5894 5893 5893 5893 5892 5891 5890 5889 5888 5886 5885 5883 5881 5880 5878 5876 5874 5872 5870 5868 5866 5864 5862 5860 5858 5856
5871 5874 5876 5878 5880 5880 5881 5882 5884 5886 5887 5888 5890 5893 5889 5889 5889 5889 5889 5888 5888 5887 5887 5886 5885 5884 5883 5881 5880 5878 5877 5875 5873 5871 5869 5867 5865 5863 5861 5858 5856 5854 5852 5849
5865 5868 5871 5874 5875 5875 5875 5877 5878 5880 5882 5883 5883 5884 5884 5883 5884 5884 5883 5883 5883 5882 5881 5880 5879 5878 5877 5876 5875 5873 5871 5869 5867 5866 5864 5861 5859 5857 5855 5853 5850 5848 5845 5842
5859 5862 5864 5866 5867 5869 5870 5871 5872 5874 5875 5877 5877 5877 5877 5877 5878 5877 5877 5877 5876 5875 5875 5873 5873 5872 5870 5869 5868 5866 5864 5863 5861 5859 5857 5855 5853 5851 5849 5846 5843 5841 5838 5835
5853 5855 5857 5859 5861 5862 5864 5865 5866 5867 5868 5869 5870 5870 5870 5870 5870 5870 5870 5870 5869 5869 5868 5867 5866 5864 5863 5862 5860 5859 5857 5855 5853 5851 5849 5847 5846 5844 5841 5839 5836 5834 5831 5829
5846 5849 5851 5853 5855 5856 5857 5859 5860 5861 5862 5863 5863 5864 5864 5863 5863 5863 5863 5863 5862 5861 5860 5860 5858 5857 5856 5854 5852 5851 5849 5848 5846 5844 5842 5840 5838 5836 5834 5831 5829 5826 5824 5821
5840 5842 5844 5847 5848 5849 5853 5853 5854 5855 5855 5856 5856 5857 5856 5856 5856 5855 5855 5855 5854 5854 5853 5852 5851 5849 5847 5846 5844 5843 5841 5840 5838 5836 5834 5832 5830 5828 5825 5823 5821 5818 5816 5814
5833 5835 5837 5840 5841 5843 5844 5846 5847 5848 5848 5849 5850 5850 5850 5849 5848 5848 5847 5847 5846 5845 5845 5844 5842 5841 5840 5838 5836 5835 5833 5832 5830 5828 5826 5824 5822 5819 5817 5815 5813 5810 5808 5805
5826 5828 5831 5832 5834 5836 5838 5839 5839 5841 5840 5842 5842 5842 5842 5842 5842 5841 5840 5839 5838 5837 5836 5835 5834 5833 5832 5830 5829 5827 5825 5824 5822 5820 5818 5816 5813 5811 5808 5806 5804 5802 5799 5797
5819 5820 5822 5824 5826 5828 5830 5830 5832 5835 5834 5834 5834 5834 5834 5834 5834 5833 5832 5831 5830 5829 5828 5827 5826 5825 5823 5822 5820 5819 5817 5815 5813 5811 5809 5807 5804 5802 5800 5797 5795 5792 5790 5787
5811 5813 5815 5817 5819 5821 5821 5822 5824 5825 5826 5826 5826 5826 5826 5826 5825 5825 5824 5823 5822 5821 5820 5819 5818 5816 5815 5813 5812 5810 5808 5806 5804 5802 5800 5798 5795 5793 5791 5788 5786 5783 5780 5777
5803 5806 5807 5810 5812 5812 5813 5814 5815 5816 5817 5817 5818 5818 5817 5817 5817 5816 5815 5815 5814 5812 5811 5810 5809 5808 5806 5805 5803 5801 5799 5797 5795 5793 5791 5789 5786 5784 5781 5778 5776 5773 5770 5768
5795 5796 5798 5800 5802 5803 5804 5805 5806 5807 5808 5808 5809 5809 5809 5808 5808 5807 5806 5805 5805 5804 5803 5802 5801 5799 5798 5796 5795 5793 5791 5788 5786 5784 5782 5779 5776 5774 5771 5769 5766 5763 5760 5758
5786 5788 5790 5791 5793 5794 5795 5796 5797 5798 5799 5799 5800 5800 5799 5799 5798 5798 5797 5797 5796 5795 5794 5792 5791 5790 5789 5787 5786 5784 5781 5779 5777 5774 5772 5769 5767 5764 5761 5759 5756 5753 5750 5747
5778 5779 5781 5783 5784 5785 5786 5787 5788 5789 5789 5790 5790 5790 5790 5789 5789 5788 5788 5787 5787 5786 5785 5784 5782 5781 5780 5778 5776 5774 5772 5770 5767 5765 5762 5759 5757 5754 5751 5748 5745 5743 5740 5738